seed: p2v3s68

Total games: 59


  • Filter by # of Players
  • Filter by Score
  • Filter by Variant



ID # of Players Score Variant Date & Time Players
90553 2 30 Rainbow (6 Suits) 2020-03-17 — 03:15:49 UTC fivefives, jwngr
154074 2 30 Rainbow (6 Suits) 2020-05-06 — 04:14:08 UTC WadeYao, YYF
175943 2 30 Rainbow (6 Suits) 2020-05-22 — 01:08:14 UTC gautam, paperairplane69
180462 2 30 Rainbow (6 Suits) 2020-05-25 — 00:40:53 UTC Hawlucha, mperera
192922 2 30 Rainbow (6 Suits) 2020-06-03 — 19:52:11 UTC Guamo, larki
226128 2 30 Rainbow (6 Suits) 2020-07-02 — 00:59:58 UTC annieboboh, penguin69
294259 2 30 Rainbow (6 Suits) 2020-09-10 — 20:40:23 UTC ihavenoidea, VerySloppyTwo
309919 2 30 Rainbow (6 Suits) 2020-09-30 — 22:25:24 UTC johnboy81918, Stephzheng
379261 2 30 Rainbow (6 Suits) 2020-12-23 — 00:49:53 UTC choonabi, safd
379606 2 30 Rainbow (6 Suits) 2020-12-23 — 05:56:12 UTC gsherm, tbt
406030 2 30 Rainbow (6 Suits) 2021-01-17 — 04:28:28 UTC FrozenAnimal, Macsgirl
410053 2 30 Rainbow (6 Suits) 2021-01-20 — 23:47:53 UTC Etherealz, missyalyssi
410740 2 30 Rainbow (6 Suits) 2021-01-21 — 20:21:48 UTC socerman, tacobot5000
455230 2 30 Rainbow (6 Suits) 2021-03-03 — 13:05:55 UTC ArcheNoah, jule_2000
456568 2 30 Rainbow (6 Suits) 2021-03-04 — 19:29:50 UTC rea, Skippy
462205 2 30 Rainbow (6 Suits) 2021-03-09 — 06:20:41 UTC Lampz, Mage
480275 2 30 Rainbow (6 Suits) 2021-03-25 — 18:13:44 UTC Footscrayzy, Noble
487159 2 30 Rainbow (6 Suits) 2021-04-01 — 04:07:48 UTC anothermattnam, jasmine
500518 2 30 Rainbow (6 Suits) 2021-04-14 — 03:06:35 UTC hambrenson, veganpecan
509436 2 30 Rainbow (6 Suits) 2021-04-22 — 18:17:33 UTC adik, oldgreg
511817 2 30 Rainbow (6 Suits) 2021-04-25 — 02:41:22 UTC Frozen_Animal, Macs_girl
543332 2 30 Rainbow (6 Suits) 2021-05-29 — 02:07:34 UTC jean_franc_bleu, loohye
560578 2 30 Rainbow (6 Suits) 2021-06-12 — 19:08:13 UTC enkimdu, Ritz1974
568322 2 30 Rainbow (6 Suits) 2021-06-20 — 20:09:56 UTC MMage, rainboy
608976 2 30 Rainbow (6 Suits) 2021-08-17 — 14:46:56 UTC JonathanHicks, sole.garcia
609915 2 30 Rainbow (6 Suits) 2021-08-18 — 19:39:59 UTC ajsehifowha, dunes1
613496 2 30 Rainbow (6 Suits) 2021-08-23 — 20:46:08 UTC Fuuut, gapiedaan
161279 2 29 Rainbow (6 Suits) 2020-05-11 — 01:32:26 UTC anna2, bfichera
179017 2 29 Rainbow (6 Suits) 2020-05-24 — 02:00:15 UTC jalmenda, zmill415
198393 2 29 Rainbow (6 Suits) 2020-06-07 — 23:00:38 UTC Crivens_Temp, eliyahu
474520 2 29 Rainbow (6 Suits) 2021-03-20 — 05:11:21 UTC lcflorencelo, slyrk
586870 2 29 Rainbow (6 Suits) 2021-07-11 — 18:24:40 UTC Frozen_Animal_, Macs_girl_
212844 2 28 Rainbow (6 Suits) 2020-06-20 — 07:27:40 UTC RespectCaviar, schemetrical
629540 2 28 Rainbow (6 Suits) 2021-09-20 — 01:59:12 UTC Cornflake62, kuib
112558 2 27 Rainbow (6 Suits) 2020-04-07 — 13:51:27 UTC Sadret, Sharklah
269801 2 27 Rainbow (6 Suits) 2020-08-13 — 16:25:09 UTC Lee3, RickSanchez
360295 2 27 Rainbow (6 Suits) 2020-12-04 — 04:55:53 UTC heftych1, kimgannon
420831 2 27 Rainbow (6 Suits) 2021-01-31 — 05:58:01 UTC Cold, Shad_Crow
48143 2 26 Rainbow (6 Suits) 2019-07-28 — 14:49:22 UTC Emily, J3enjamin
594073 2 25 Rainbow (6 Suits) 2021-07-22 — 17:59:42 UTC jmac78, sjforion
5462 2 0 Rainbow (6 Suits) 2018-04-21 — 20:36:27 UTC Libster, Zamiel
5593 2 0 Rainbow (6 Suits) 2018-04-24 — 19:19:45 UTC florrat2, postmans
60055 2 0 Rainbow (6 Suits) 2019-10-21 — 21:49:57 UTC hbjornoy, heddav
64684 2 0 Rainbow (6 Suits) 2019-11-15 — 10:14:46 UTC Dr_Kakashi, RaKXeR
122316 2 0 Rainbow (6 Suits) 2020-04-15 — 01:12:33 UTC dewey, liwei
138031 2 0 Rainbow (6 Suits) 2020-04-25 — 19:49:00 UTC bornagy, nandu13
158525 2 0 Rainbow (6 Suits) 2020-05-09 — 12:43:12 UTC Dilshaad, Dimithi
190345 2 0 Rainbow (6 Suits) 2020-06-01 — 09:39:36 UTC Joost, Thomas1234
194570 2 0 Rainbow (6 Suits) 2020-06-05 — 03:50:51 UTC buxtehude11, yeeclaw
223247 2 0 Rainbow (6 Suits) 2020-06-29 — 17:41:21 UTC opurtell, rholstine
234989 2 0 Rainbow (6 Suits) 2020-07-10 — 06:20:10 UTC aridante, nostalgiccat
238482 2 0 Rainbow (6 Suits) 2020-07-13 — 20:39:32 UTC mglanzer, rfrank27
262056 2 0 Rainbow (6 Suits) 2020-08-05 — 01:25:50 UTC Aluap, antitelharsic
349881 2 0 Rainbow (6 Suits) 2020-11-21 — 20:36:34 UTC efemural, jean
362173 2 0 Rainbow (6 Suits) 2020-12-06 — 05:12:18 UTC madampoops, mrpoopybutthole
433555 2 0 Rainbow (6 Suits) 2021-02-11 — 21:06:33 UTC CaitlinSmith, robense
613493 2 0 Rainbow (6 Suits) 2021-08-23 — 20:45:01 UTC Charles123123, wardsux1
615615 2 0 Rainbow (6 Suits) 2021-08-27 — 00:16:34 UTC hu.man01, Stradguy1
620106 2 0 Rainbow (6 Suits) 2021-09-02 — 20:04:40 UTC asdasdasda, JTJTJTJTJT